Location: Unspecified
(0.0000°N, 0.0000°E)
Time: 02:25:35
(UTC+00:00)

NOSS 3-1 (A) - Visible Passes

Search period start: 21 April 2019 00:00
Search period end: 01 May 2019 00:00
Orbit: 787 x 1426 km, 63.4° (Epoch: 18 April)

Date Brightness Start Highest point End Pass type
(mag) Time Alt. Az. Time Alt. Az. Time Alt. Az.
21 Apr 6.7 04:05:48 10° NNE 04:11:35 20° ENE 04:17:27 10° ESE visible
22 Apr 4.5 05:09:05 10° NNW 05:17:46 80° ENE 05:26:29 10° SSE visible
23 Apr 5.3 04:24:48 10° N 04:33:01 48° ENE 04:41:18 10° SE visible
24 Apr 6.0 03:41:12 10° NNE 03:48:15 28° ENE 03:55:22 10° ESE visible
24 Apr 4.5 05:30:55 10° NW 05:39:08 47° WSW 05:47:20 10° S visible
25 Apr 6.6 02:58:51 10° NE 03:03:26 15° ENE 03:08:01 10° E visible
25 Apr 4.2 04:45:42 10° NNW 04:54:23 78° WSW 05:03:05 10° SSE visible
26 Apr 4.6 04:01:04 10° NNW 04:09:38 66° ENE 04:18:15 10° SSE visible
27 Apr 5.4 03:17:02 10° N 03:24:53 39° ENE 03:32:49 10° SE visible
27 Apr 4.8 05:08:10 10° NW 05:15:46 34° WSW 05:23:20 10° S visible
28 Apr 6.1 02:33:47 10° NNE 02:40:06 22° ENE 02:46:29 10° ESE visible
28 Apr 4.3 04:22:31 10° NW 04:31:00 57° WSW 04:39:28 10° S visible
29 Apr 6.6 01:52:47 10° NE 01:55:15 11° ENE 01:57:44 10° E visible
29 Apr 4.2 03:37:33 10° NNW 03:46:15 88° ENE 03:55:00 10° SSE visible
29 Apr 5.6 05:33:56 10° W 05:37:15 13° WSW 05:40:35 10° SW visible
30 Apr 4.8 02:53:08 10° N 03:01:30 54° ENE 03:09:56 10° SE visible
30 Apr 5.1 04:48:31 18° W 04:52:25 24° WSW 04:59:00 10° SSW visible
